Crane Lake, MN

2:10 PM CST on February 21, 2018 (GMT -0600)
Crane Lake

Weather History for KCDD - April, 2012

Change the Weather History Date:

Thursday, April 19, 2012

  Actual Average Record
Temperature  
Mean Temperature 34 °F -  
Max Temperature 46 °F 49 °F 66 °F (2001)
Min Temperature 21 °F 26 °F 3 °F (2013)
Degree Days  
Heating Degree Days 32    
Moisture  
Dew Point 24 °F    
Average Humidity 77    
Maximum Humidity 100    
Minimum Humidity 32    
Precipitation  
Precipitation 0.00 in - - ()
Sea Level Pressure  
Sea Level Pressure 30.08 in    
Wind  
Wind Speed 1 mph (NNE)    
Max Wind Speed 8 mph    
Max Gust Speed -    
Visibility 10 miles    
Events      
Averages and records for this station are not official NWS values.
T = Trace of Precipitation, MM = Missing Value Source: NWS Daily Summary

Daily Weather History Graph

Daily Weather History Graph

Search for Another Location

Airport or City:

Trip Planner

Search our weather history database for the weather conditions in past years. The results will help you decide how hot, cold, wet, or windy it might be!

Date:

Astronomy

Apr. 19, 2012 Rise Set
Actual Time 6:11 AM CDT 8:07 PM CDT
Civil Twilight 5:38 AM CDT 8:40 PM CDT
Nautical Twilight 4:57 AM CDT 9:22 PM CDT
Astronomical Twilight 4:11 AM CDT 10:08 PM CDT
Moon 5:10 AM CDT (4/19) 6:53 PM CDT (4/19)
Length of Visible Light 15h 02m
Length of Day
13h 55m
Waning Crescent, 2% of the Moon is Illuminated
Apr 19
Waning Crescent
Apr 21
New
Apr 29
First Quarter
May 5
Full
May 12
Last Quarter

Hourly Weather History & Observations

Time (CDT) Temp. Windchill Dew Point Humidity Pressure Visibility Wind Dir Wind Speed Gust Speed Precip Events Conditions
12:14 AM 26.6 °F - 26.6 °F 100% 30.07 in 10.0 mi Calm Calm - N/A   Scattered Clouds
12:34 AM 26.6 °F - 26.6 °F 100% 30.07 in 10.0 mi Calm Calm - N/A   Clear
12:54 AM 26.6 °F - 26.6 °F 100% 30.08 in 10.0 mi Calm Calm - N/A   Clear
1:14 AM 26.6 °F - 24.8 °F 93% 30.08 in 10.0 mi Calm Calm - N/A   Scattered Clouds
1:54 AM 26.6 °F - 24.8 °F 93% 30.07 in 10.0 mi Calm Calm - N/A   Scattered Clouds
2:14 AM 26.6 °F - 24.8 °F 93% 30.07 in 10.0 mi Calm Calm - N/A   Scattered Clouds
2:34 AM 26.6 °F - 24.8 °F 93% 30.07 in 10.0 mi Calm Calm - N/A   Scattered Clouds
2:54 AM 24.8 °F - 23.0 °F 93% 30.06 in 7.0 mi Calm Calm - N/A   Clear
3:14 AM 24.8 °F - 23.0 °F 93% 30.06 in 10.0 mi Calm Calm - N/A   Clear
3:34 AM 24.8 °F - 23.0 °F 93% 30.07 in 10.0 mi Calm Calm - N/A   Clear
3:54 AM 24.8 °F - 23.0 °F 93% 30.07 in 10.0 mi Calm Calm - N/A   Clear
4:14 AM 23.0 °F - 21.2 °F 93% 30.07 in 10.0 mi Calm Calm - N/A   Scattered Clouds
4:34 AM 23.0 °F - 21.2 °F 93% 30.08 in 10.0 mi Calm Calm - N/A   Scattered Clouds
4:54 AM 21.2 °F - 21.2 °F 100% 30.09 in 10.0 mi Calm Calm - N/A   Clear
5:14 AM 21.2 °F - 21.2 °F 100% 30.09 in 10.0 mi Calm Calm - N/A   Clear
5:34 AM 21.2 °F - 19.4 °F 93% 30.10 in 10.0 mi Calm Calm - N/A   Clear
5:54 AM 21.2 °F - 19.4 °F 93% 30.10 in 10.0 mi Calm Calm - N/A   Scattered Clouds
6:34 AM 21.2 °F - 21.2 °F 100% 30.11 in 7.0 mi Calm Calm - N/A   Scattered Clouds
6:54 AM 21.2 °F - 21.2 °F 100% 30.12 in 10.0 mi Calm Calm - N/A   Scattered Clouds
7:14 AM 24.8 °F - 23.0 °F 93% 30.12 in 10.0 mi Calm Calm - N/A   Overcast
7:34 AM 24.8 °F - 24.8 °F 100% 30.13 in 7.0 mi Calm Calm - N/A   Overcast
7:54 AM 26.6 °F - 26.6 °F 100% 30.13 in 2.0 mi Calm Calm - N/A   Overcast
8:14 AM 28.4 °F - 28.4 °F 100% 30.13 in 1.8 mi Calm Calm - N/A   Overcast
8:34 AM 28.4 °F - 28.4 °F 100% 30.14 in 5.0 mi Calm Calm - N/A   Overcast
8:54 AM 28.4 °F - 28.4 °F 100% 30.13 in 7.0 mi Calm Calm - N/A   Overcast
9:16 AM 28.4 °F 24.6 °F 28.4 °F 100% 30.13 in 10.0 mi SSW 3.5 mph - N/A   Overcast
9:35 AM 28.4 °F - 28.4 °F 100% 30.13 in 10.0 mi Calm Calm - N/A   Overcast
9:54 AM 30.2 °F - 28.4 °F 93% 30.13 in 10.0 mi Calm Calm - N/A   Overcast
10:14 AM 30.2 °F 26.7 °F 30.2 °F 100% 30.13 in 10.0 mi SSE 3.5 mph - N/A   Mostly Cloudy
10:34 AM 30.2 °F - 30.2 °F 100% 30.14 in 10.0 mi Calm Calm - N/A   Overcast
10:54 AM 33.8 °F - 30.2 °F 87% 30.13 in 10.0 mi Calm Calm - N/A   Mostly Cloudy
11:14 AM 33.8 °F - 30.2 °F 87% 30.13 in 10.0 mi Calm Calm - N/A   Scattered Clouds
11:34 AM 35.6 °F - 30.2 °F 81% 30.13 in 10.0 mi Calm Calm - N/A   Clear
11:54 AM 37.4 °F - 30.2 °F 75% 30.12 in 10.0 mi Calm Calm - N/A   Clear
12:14 PM 39.2 °F - 30.2 °F 70% 30.12 in 10.0 mi Calm Calm - N/A   Clear
12:34 PM 41.0 °F - 28.4 °F 61% 30.11 in 10.0 mi Calm Calm - N/A   Clear
12:54 PM 42.8 °F - 26.6 °F 53% 30.10 in 10.0 mi Calm Calm - N/A   Clear
1:14 PM 42.8 °F 40.1 °F 24.8 °F 49% 30.10 in 10.0 mi North 4.6 mph - N/A   Clear
1:34 PM 42.8 °F 40.1 °F 23.0 °F 46% 30.09 in 10.0 mi North 4.6 mph - N/A   Clear
1:54 PM 44.6 °F 42.2 °F 21.2 °F 39% 30.09 in 10.0 mi NNE 4.6 mph - N/A   Clear
2:14 PM 44.6 °F 40.2 °F 19.4 °F 37% 30.09 in 10.0 mi North 8.1 mph - N/A   Clear
2:34 PM 44.6 °F 41.4 °F 21.2 °F 39% 30.08 in 10.0 mi NNE 5.8 mph - N/A   Clear
2:54 PM 44.6 °F 43.1 °F 19.4 °F 37% 30.07 in 10.0 mi North 3.5 mph - N/A   Clear
3:14 PM 44.6 °F 42.2 °F 19.4 °F 37% 30.06 in 10.0 mi NNE 4.6 mph - N/A   Clear
3:34 PM 44.6 °F 42.2 °F 19.4 °F 37% 30.05 in 10.0 mi NNE 4.6 mph - N/A   Clear
3:54 PM 44.6 °F - 19.4 °F 37% 30.05 in 10.0 mi Calm Calm - N/A   Clear
4:14 PM 44.6 °F 43.1 °F 19.4 °F 37% 30.05 in 10.0 mi NNE 3.5 mph - N/A   Clear
4:54 PM 46.4 °F 45.2 °F 19.4 °F 34% 30.04 in 10.0 mi North 3.5 mph - N/A   Clear
5:14 PM 46.4 °F 44.3 °F 17.6 °F 32% 30.04 in 10.0 mi NE 4.6 mph - N/A   Clear
5:34 PM 44.6 °F - 17.6 °F 34% 30.04 in 10.0 mi Calm Calm - N/A   Scattered Clouds
5:54 PM 44.6 °F - 17.6 °F 34% 30.04 in 10.0 mi Calm Calm - N/A   Scattered Clouds
6:14 PM 46.4 °F - 17.6 °F 32% 30.04 in 10.0 mi Calm Calm - N/A   Scattered Clouds
6:34 PM 46.4 °F - 17.6 °F 32% 30.03 in 10.0 mi Calm Calm - N/A   Clear
6:54 PM 46.4 °F - 17.6 °F 32% 30.04 in 10.0 mi Calm Calm - N/A   Clear
7:14 PM 44.6 °F - 21.2 °F 39% 30.04 in 10.0 mi Calm Calm - N/A   Clear
7:34 PM 39.2 °F - 26.6 °F 61% - 10.0 mi Calm Calm - N/A   Clear
7:54 PM 35.6 °F - 28.4 °F 75% 30.04 in 10.0 mi Calm Calm - N/A   Clear
8:14 PM 33.8 °F - 28.4 °F 81% 30.05 in 10.0 mi Calm Calm - N/A   Clear
8:34 PM 30.2 °F - 26.6 °F 86% 30.05 in 10.0 mi Calm Calm - N/A   Scattered Clouds
8:54 PM 30.2 °F - 26.6 °F 86% 30.05 in 10.0 mi Calm Calm - N/A   Clear
9:14 PM 28.4 °F - 26.6 °F 93% 30.05 in 10.0 mi Calm Calm - N/A   Clear
9:34 PM 28.4 °F - 26.6 °F 93% 30.05 in 10.0 mi Calm Calm - N/A   Clear
9:54 PM 26.6 °F - 26.6 °F 100% 30.05 in 10.0 mi Calm Calm - N/A   Clear
10:14 PM 26.6 °F - 24.8 °F 93% 30.05 in 10.0 mi Calm Calm - N/A   Clear
10:34 PM 26.6 °F - 24.8 °F 93% 30.05 in 10.0 mi Calm Calm - N/A   Clear
10:54 PM 26.6 °F - 24.8 °F 93% 30.05 in 10.0 mi Calm Calm - N/A   Clear
11:14 PM 26.6 °F 22.6 °F 24.8 °F 93% 30.05 in 10.0 mi South 3.5 mph - N/A   Clear
11:34 PM 26.6 °F - 24.8 °F 93% 30.06 in 10.0 mi Calm Calm - N/A   Clear
11:54 PM 26.6 °F - 24.8 °F 93% 30.05 in 10.0 mi Calm Calm - N/A   Clear